Time,TemperatureF,DewpointF,PressureIn,WindDirection,WindDirectionDegrees,WindSpeedMPH,WindSpeedGustMPH,Humidity,HourlyPrecipIn,Conditions,Clouds,dailyrainin,SolarRadiationWatts/m^2,SoftwareType,DateUTC
2013-01-27 00:03:00,61.0,58.0,-100.00,NNE,29,3.0,7.0,91,0.00,,,0.00,0.000000,,2013-01-27 05:03:00,
2013-01-27 00:12:00,61.0,58.0,-100.00,NNE,29,3.0,7.0,91,0.00,,,0.00,0.000000,,2013-01-27 05:12:00,
2013-01-27 00:32:00,61.0,57.0,-100.00,NNE,25,3.0,8.0,88,0.00,,,0.00,0.000000,,2013-01-27 05:32:00,
2013-01-27 00:42:00,61.0,57.0,-100.00,NNE,25,3.0,8.0,88,0.00,,,0.00,0.000000,,2013-01-27 05:42:00,
2013-01-27 00:52:00,61.0,57.0,-100.00,NNE,25,3.0,8.0,88,0.00,,,0.00,0.000000,,2013-01-27 05:52:00,
2013-01-27 01:02:00,61.0,57.0,-100.00,NNE,25,3.0,8.0,88,0.00,,,0.00,0.000000,,2013-01-27 06:02:00,
2013-01-27 01:11:00,61.0,57.0,-100.00,NNE,25,3.0,8.0,88,0.00,,,0.00,0.000000,,2013-01-27 06:11:00,
2013-01-27 01:32:00,60.0,56.0,-100.00,NE,40,3.0,8.0,88,0.00,,,0.00,0.000000,,2013-01-27 06:32:00,
2013-01-27 01:42:00,60.0,56.0,-100.00,NE,40,3.0,8.0,88,0.00,,,0.00,0.000000,,2013-01-27 06:42:00,
2013-01-27 01:52:00,60.0,56.0,-100.00,NE,40,3.0,8.0,88,0.00,,,0.00,0.000000,,2013-01-27 06:52:00,
2013-01-27 02:01:00,60.0,56.0,-100.00,NE,40,3.0,8.0,88,0.00,,,0.00,0.000000,,2013-01-27 07:01:00,
2013-01-27 02:14:00,60.0,56.0,-100.00,NE,40,3.0,8.0,88,0.00,,,0.00,0.000000,,2013-01-27 07:14:00,
2013-01-27 02:32:00,59.0,56.0,-100.00,NE,34,4.0,8.0,89,0.00,,,0.00,0.000000,,2013-01-27 07:32:00,
2013-01-27 02:42:00,59.0,56.0,-100.00,NE,34,4.0,8.0,89,0.00,,,0.00,0.000000,,2013-01-27 07:42:00,
2013-01-27 02:52:00,59.0,56.0,-100.00,NE,34,4.0,8.0,89,0.00,,,0.00,0.000000,,2013-01-27 07:52:00,
2013-01-27 03:02:00,59.0,56.0,-100.00,NE,34,4.0,8.0,89,0.00,,,0.00,0.000000,,2013-01-27 08:02:00,
2013-01-27 03:12:00,59.0,56.0,-100.00,NE,34,4.0,8.0,89,0.00,,,0.00,0.000000,,2013-01-27 08:12:00,
2013-01-27 03:42:00,58.0,55.0,-100.00,NNE,33,4.0,7.0,89,0.00,,,0.00,0.000000,,2013-01-27 08:42:00,
2013-01-27 03:52:00,58.0,55.0,-100.00,NNE,33,4.0,7.0,89,0.00,,,0.00,0.000000,,2013-01-27 08:52:00,
2013-01-27 04:03:00,58.0,55.0,-100.00,NNE,33,4.0,7.0,89,0.00,,,0.00,0.000000,,2013-01-27 09:03:00,
2013-01-27 04:11:00,58.0,55.0,-100.00,NNE,33,4.0,7.0,89,0.00,,,0.00,0.000000,,2013-01-27 09:11:00,
2013-01-27 04:32:00,58.0,55.0,-100.00,NE,44,4.0,8.0,89,0.00,,,0.00,0.000000,,2013-01-27 09:32:00,
2013-01-27 04:42:00,58.0,55.0,-100.00,NE,44,4.0,8.0,89,0.00,,,0.00,0.000000,,2013-01-27 09:42:00,
2013-01-27 04:52:00,58.0,55.0,-100.00,NE,44,4.0,8.0,89,0.00,,,0.00,0.000000,,2013-01-27 09:52:00,
2013-01-27 05:01:00,58.0,55.0,-100.00,NE,44,4.0,8.0,89,0.00,,,0.00,0.000000,,2013-01-27 10:01:00,
2013-01-27 05:11:00,58.0,55.0,-100.00,NE,44,4.0,8.0,89,0.00,,,0.00,0.000000,,2013-01-27 10:11:00,
2013-01-27 05:42:00,58.0,55.0,-100.00,NE,42,3.0,6.0,91,0.00,,,0.00,0.000000,,2013-01-27 10:42:00,
2013-01-27 05:52:00,58.0,55.0,-100.00,NE,42,3.0,6.0,91,0.00,,,0.00,0.000000,,2013-01-27 10:52:00,
2013-01-27 06:01:00,58.0,55.0,-100.00,NE,42,3.0,6.0,91,0.00,,,0.00,0.000000,,2013-01-27 11:01:00,
2013-01-27 06:11:00,58.0,55.0,-100.00,NE,42,3.0,6.0,91,0.00,,,0.00,0.000000,,2013-01-27 11:11:00,
2013-01-27 06:42:00,59.0,56.0,-100.00,NE,43,4.0,6.0,91,0.00,,,0.00,0.000000,,2013-01-27 11:42:00,
2013-01-27 06:52:00,59.0,56.0,-100.00,NE,43,4.0,6.0,91,0.00,,,0.00,0.000000,,2013-01-27 11:52:00,
2013-01-27 07:02:00,59.0,56.0,-100.00,NE,43,4.0,6.0,91,0.00,,,0.00,0.000000,,2013-01-27 12:02:00,
2013-01-27 07:12:00,59.0,56.0,-100.00,NE,43,4.0,6.0,91,0.00,,,0.00,0.000000,,2013-01-27 12:12:00,
2013-01-27 07:33:00,58.0,55.0,-100.00,NE,43,4.0,7.0,90,0.00,,,0.00,0.000000,,2013-01-27 12:33:00,
2013-01-27 07:42:00,58.0,55.0,-100.00,NE,43,4.0,7.0,90,0.00,,,0.00,0.000000,,2013-01-27 12:42:00,
2013-01-27 07:52:00,58.0,55.0,-100.00,NE,43,4.0,7.0,90,0.00,,,0.00,0.000000,,2013-01-27 12:52:00,
2013-01-27 08:02:00,58.0,55.0,-100.00,NE,43,4.0,7.0,90,0.00,,,0.00,0.000000,,2013-01-27 13:02:00,
2013-01-27 08:12:00,58.0,55.0,-100.00,NE,43,4.0,7.0,90,0.00,,,0.00,0.000000,,2013-01-27 13:12:00,
2013-01-27 08:42:00,61.0,55.0,-100.00,NE,53,5.0,9.0,82,0.00,,,0.00,51.000000,,2013-01-27 13:42:00,
2013-01-27 08:52:00,61.0,55.0,-100.00,NE,53,5.0,9.0,82,0.00,,,0.00,51.000000,,2013-01-27 13:52:00,
2013-01-27 09:02:00,61.0,55.0,-100.00,NE,53,5.0,9.0,82,0.00,,,0.00,51.000000,,2013-01-27 14:02:00,
2013-01-27 09:12:00,61.0,55.0,-100.00,NE,53,5.0,9.0,82,0.00,,,0.00,51.000000,,2013-01-27 14:12:00,
2013-01-27 09:53:00,65.0,56.0,-100.00,NE,55,7.0,13.0,72,0.00,,,0.00,200.000000,,2013-01-27 14:53:00,
2013-01-27 10:02:00,65.0,56.0,-100.00,NE,55,7.0,13.0,72,0.00,,,0.00,200.000000,,2013-01-27 15:02:00,
2013-01-27 10:12:00,65.0,56.0,-100.00,NE,55,7.0,13.0,72,0.00,,,0.00,200.000000,,2013-01-27 15:12:00,
2013-01-27 10:33:00,70.0,55.0,-100.00,ENE,75,7.0,13.0,60,0.00,,,0.00,351.000000,,2013-01-27 15:33:00,
2013-01-27 10:42:00,70.0,55.0,-100.00,ENE,75,7.0,13.0,60,0.00,,,0.00,351.000000,,2013-01-27 15:42:00,
2013-01-27 10:53:00,70.0,55.0,-100.00,ENE,75,7.0,13.0,60,0.00,,,0.00,351.000000,,2013-01-27 15:53:00,
2013-01-27 11:03:00,70.0,55.0,-100.00,ENE,75,7.0,13.0,60,0.00,,,0.00,351.000000,,2013-01-27 16:03:00,
2013-01-27 11:12:00,70.0,55.0,-100.00,ENE,75,7.0,13.0,60,0.00,,,0.00,351.000000,,2013-01-27 16:12:00,
2013-01-27 11:33:00,74.0,56.0,-100.00,NE,41,7.0,11.0,53,0.00,,,0.00,474.000000,,2013-01-27 16:33:00,
2013-01-27 11:42:00,74.0,56.0,-100.00,NE,41,7.0,11.0,53,0.00,,,0.00,474.000000,,2013-01-27 16:42:00,
2013-01-27 11:53:00,74.0,56.0,-100.00,NE,41,7.0,11.0,53,0.00,,,0.00,474.000000,,2013-01-27 16:53:00,
2013-01-27 12:02:00,74.0,56.0,-100.00,NE,41,7.0,11.0,53,0.00,,,0.00,474.000000,,2013-01-27 17:02:00,
2013-01-27 12:12:00,74.0,56.0,-100.00,NE,41,7.0,11.0,53,0.00,,,0.00,474.000000,,2013-01-27 17:12:00,
2013-01-27 12:42:00,77.0,56.0,-100.00,ENE,62,7.0,12.0,49,0.00,,,0.00,552.000000,,2013-01-27 17:42:00,
2013-01-27 12:53:00,77.0,56.0,-100.00,ENE,62,7.0,12.0,49,0.00,,,0.00,552.000000,,2013-01-27 17:53:00,
2013-01-27 13:03:00,77.0,56.0,-100.00,ENE,62,7.0,12.0,49,0.00,,,0.00,552.000000,,2013-01-27 18:03:00,
2013-01-27 13:12:00,77.0,56.0,-100.00,ENE,62,7.0,12.0,49,0.00,,,0.00,552.000000,,2013-01-27 18:12:00,
2013-01-27 13:42:00,79.0,55.0,-100.00,NE,34,7.0,13.0,43,0.00,,,0.00,570.000000,,2013-01-27 18:42:00,
2013-01-27 13:53:00,79.0,55.0,-100.00,NE,34,7.0,13.0,43,0.00,,,0.00,570.000000,,2013-01-27 18:53:00,
2013-01-27 14:02:00,79.0,55.0,-100.00,NE,34,7.0,13.0,43,0.00,,,0.00,570.000000,,2013-01-27 19:02:00,
2013-01-27 14:12:00,79.0,55.0,-100.00,NE,34,7.0,13.0,43,0.00,,,0.00,570.000000,,2013-01-27 19:12:00,
2013-01-27 14:33:00,80.0,52.0,-100.00,ENE,73,7.0,12.0,38,0.00,,,0.00,539.000000,,2013-01-27 19:33:00,
2013-01-27 14:42:00,80.0,52.0,-100.00,ENE,73,7.0,12.0,38,0.00,,,0.00,539.000000,,2013-01-27 19:42:00,
2013-01-27 14:52:00,80.0,52.0,-100.00,ENE,73,7.0,12.0,38,0.00,,,0.00,539.000000,,2013-01-27 19:52:00,
2013-01-27 15:03:00,80.0,52.0,-100.00,ENE,73,7.0,12.0,38,0.00,,,0.00,539.000000,,2013-01-27 20:03:00,
2013-01-27 15:12:00,80.0,52.0,-100.00,ENE,73,7.0,12.0,38,0.00,,,0.00,539.000000,,2013-01-27 20:12:00,
2013-01-27 15:42:00,80.0,51.0,-100.00,ESE,103,7.0,13.0,37,0.00,,,0.00,440.000000,,2013-01-27 20:42:00,
2013-01-27 15:52:00,80.0,51.0,-100.00,ESE,103,7.0,13.0,37,0.00,,,0.00,440.000000,,2013-01-27 20:52:00,
2013-01-27 16:02:00,80.0,51.0,-100.00,ESE,103,7.0,13.0,37,0.00,,,0.00,440.000000,,2013-01-27 21:02:00,
2013-01-27 16:12:00,80.0,51.0,-100.00,ESE,103,7.0,13.0,37,0.00,,,0.00,440.000000,,2013-01-27 21:12:00,
2013-01-27 16:33:00,79.0,55.0,-100.00,ENE,76,6.0,12.0,43,0.00,,,0.00,214.000000,,2013-01-27 21:33:00,
2013-01-27 16:43:00,79.0,55.0,-100.00,ENE,76,6.0,12.0,43,0.00,,,0.00,214.000000,,2013-01-27 21:43:00,
2013-01-27 16:52:00,79.0,55.0,-100.00,ENE,76,6.0,12.0,43,0.00,,,0.00,214.000000,,2013-01-27 21:52:00,
2013-01-27 17:03:00,79.0,55.0,-100.00,ENE,76,6.0,12.0,43,0.00,,,0.00,214.000000,,2013-01-27 22:03:00,
2013-01-27 17:12:00,79.0,55.0,-100.00,ENE,76,6.0,12.0,43,0.00,,,0.00,214.000000,,2013-01-27 22:12:00,
2013-01-27 17:42:00,77.0,56.0,-100.00,ENE,73,5.0,9.0,48,0.00,,,0.00,89.000000,,2013-01-27 22:42:00,
2013-01-27 17:52:00,77.0,56.0,-100.00,ENE,73,5.0,9.0,48,0.00,,,0.00,89.000000,,2013-01-27 22:52:00,
2013-01-27 18:02:00,77.0,56.0,-100.00,ENE,73,5.0,9.0,48,0.00,,,0.00,89.000000,,2013-01-27 23:02:00,
2013-01-27 18:12:00,77.0,56.0,-100.00,ENE,73,5.0,9.0,48,0.00,,,0.00,89.000000,,2013-01-27 23:12:00,
2013-01-27 18:32:00,74.0,57.0,-100.00,ENE,63,4.0,8.0,55,0.00,,,0.00,15.000000,,2013-01-27 23:32:00,
2013-01-27 18:42:00,74.0,57.0,-100.00,ENE,63,4.0,8.0,55,0.00,,,0.00,15.000000,,2013-01-27 23:42:00,
2013-01-27 18:53:00,74.0,57.0,-100.00,ENE,63,4.0,8.0,55,0.00,,,0.00,15.000000,,2013-01-27 23:53:00,
2013-01-27 19:02:00,74.0,57.0,-100.00,ENE,63,4.0,8.0,55,0.00,,,0.00,15.000000,,2013-01-28 00:02:00,
2013-01-27 19:12:00,74.0,57.0,-100.00,ENE,63,4.0,8.0,55,0.00,,,0.00,15.000000,,2013-01-28 00:12:00,
2013-01-27 19:42:00,74.0,55.0,-100.00,ENE,71,6.0,11.0,51,0.00,,,0.00,0.000000,,2013-01-28 00:42:00,
2013-01-27 19:52:00,74.0,55.0,-100.00,ENE,71,6.0,11.0,51,0.00,,,0.00,0.000000,,2013-01-28 00:52:00,
2013-01-27 20:02:00,74.0,55.0,-100.00,ENE,71,6.0,11.0,51,0.00,,,0.00,0.000000,,2013-01-28 01:02:00,
2013-01-27 20:12:00,74.0,55.0,-100.00,ENE,71,6.0,11.0,51,0.00,,,0.00,0.000000,,2013-01-28 01:12:00,
2013-01-27 20:42:00,73.0,56.0,-100.00,East,84,6.0,11.0,55,0.00,,,0.00,0.000000,,2013-01-28 01:42:00,
2013-01-27 20:52:00,73.0,56.0,-100.00,East,84,6.0,11.0,55,0.00,,,0.00,0.000000,,2013-01-28 01:52:00,
2013-01-27 21:02:00,73.0,56.0,-100.00,East,84,6.0,11.0,55,0.00,,,0.00,0.000000,,2013-01-28 02:02:00,
2013-01-27 21:11:00,73.0,56.0,-100.00,East,84,6.0,11.0,55,0.00,,,0.00,0.000000,,2013-01-28 02:11:00,
2013-01-27 21:42:00,71.0,57.0,-100.00,East,92,6.0,13.0,61,0.00,,,0.00,0.000000,,2013-01-28 02:42:00,
2013-01-27 21:53:00,71.0,57.0,-100.00,East,92,6.0,13.0,61,0.00,,,0.00,0.000000,,2013-01-28 02:53:00,
2013-01-27 22:02:00,71.0,57.0,-100.00,East,92,6.0,13.0,61,0.00,,,0.00,0.000000,,2013-01-28 03:02:00,
2013-01-27 22:12:00,71.0,57.0,-100.00,East,92,6.0,13.0,61,0.00,,,0.00,0.000000,,2013-01-28 03:12:00,
2013-01-27 22:32:00,70.0,58.0,-100.00,East,80,6.0,13.0,65,0.00,,,0.00,0.000000,,2013-01-28 03:32:00,
2013-01-27 22:42:00,70.0,58.0,-100.00,East,80,6.0,13.0,65,0.00,,,0.00,0.000000,,2013-01-28 03:42:00,
2013-01-27 22:53:00,70.0,58.0,-100.00,East,80,6.0,13.0,65,0.00,,,0.00,0.000000,,2013-01-28 03:53:00,
2013-01-27 23:02:00,70.0,58.0,-100.00,East,80,6.0,13.0,65,0.00,,,0.00,0.000000,,2013-01-28 04:02:00,
2013-01-27 23:12:00,70.0,58.0,-100.00,East,80,6.0,13.0,65,0.00,,,0.00,0.000000,,2013-01-28 04:12:00,
2013-01-27 23:32:00,70.0,59.0,-100.00,East,86,6.0,12.0,68,0.00,,,0.00,0.000000,,2013-01-28 04:32:00,
2013-01-27 23:42:00,70.0,59.0,-100.00,East,86,6.0,12.0,68,0.00,,,0.00,0.000000,,2013-01-28 04:42:00,
2013-01-27 23:52:00,70.0,59.0,-100.00,East,86,6.0,12.0,68,0.00,,,0.00,0.000000,,2013-01-28 04:52:00,